Zurück zum Katalog

CZ-6A DEB

AktivSSO
NORAD 55198·DEBRIS·🇨🇳 China

Gestartet Nov 11, 2022 von Taiyuan Satellite Launch Center

Loading…

Nächste Überflüge (nächste 24 Stunden)

TLE

AktuellSource: Space-Track

Epoche: Sep 14, 2026, 10:27 UTC

1 55198U 22151VP  26257.43549131  .00004309  00000-0  84000-3 0  9992
2 55198  98.6129 319.0597 0090189  32.4646 328.2056 14.60979868197675

Verfolge CZ-6A DEB in Echtzeit mit AllMySat

Download on the App Store